Regional Weather Roundup
Issued by NWS Sterling, VA

Home | Current Version | Previous Version | Graphics & Text | Print | Product List | Glossary On
Versions: 1 2 3 4 5 6 7 8 9 10 11 12 13 14 15 16 17 18 19 20 21 22 23 24 25 26 27 28 29 30 31 32 33 34 35 36 37 38 39 40 41 42 43 44 45 46 47 48 49 50
000
ASUS41 KLWX 280010
RWRLWX

REGIONAL WEATHER ROUNDUP
NATIONAL WEATHER SERVICE BALTIMORE MD/WASHINGTON DC
800 PM EDT MON APR 27 2015

Note: "FAIR" indicates few or no clouds below 12,000 feet
with no significant weather and/or obstructions to visibility.
 TC=TEMPERATURE CELSIUS

 * =Non NWS site. Station does not report precipitation (e.g. rain,
    snow, etc.), thunder, or fog.

DCZ001-MDZ009-015-VAZ040>042-051-053>054-280100-
WASHINGTON METRO

CITY           SKY/WX    TMP DP  RH WIND       PRES   REMARKS
WASHINGTON NAT LGT RAIN  57  37  47 NW20G26   29.85R
DULLES         LGT RAIN  53  36  52 N10       29.85R
ANDREWS AFB    MOCLDY    55  33  43 NW16G23   29.82R
FT BELVOIR     MOCLDY    56  34  42 NW8       29.84R
QUANTICO       MOCLDY    57  32  38 N9        29.85R
COLLEGE PARK*  CLOUDY    55  32  41 NW8G17    29.83R
LEESBURG*      CLOUDY    54  39  58 N6        29.86R
MANASSAS*      MOCLDY    55  34  44 NW23      29.84R
GAITHERSBURG*  CLOUDY    50  36  57 W8        29.88R

$$

MDZ006>007-011-014-280100-
BALTIMORE METRO

CITY           SKY/WX    TMP DP  RH WIND       PRES   REMARKS
BWI AIRPORT    CLOUDY    54  33  45 NW9G22    29.81R
MD SCIENCE CTR   N/A     56  32  40 MISG      29.81S
MARTIN STATE   CLEAR     55  36  47 NW9       29.82R
ANNAPOLIS      CLOUDY    56  33  42 W13G20    29.80S
FORT MEADE*    CLOUDY    54  34  47 NW7       29.84R

$$

MDZ012-015-019>023-280100-
MARYLAND EASTERN SHORE

CITY           SKY/WX    TMP DP  RH WIND       PRES   REMARKS
OCEAN CITY     CLOUDY    55  35  47 NW6       29.77S
SALISBURY      CLOUDY    55  35  47 NW7       29.78S
CAMBRIDGE*     PTCLDY    57  34  41 NW9G16    29.79R
EASTON*        MOCLDY    57  37  47 NW10      29.83R

$$

MDZ017>025-280100-
SOUTHERN MARYLAND

CITY           SKY/WX    TMP DP  RH WIND       PRES   REMARKS
PATUXENT RIVER MOCLDY    55  33  43 W13       29.81R
ST INIGOES     CLOUDY    56  34  43 NW12      29.81R
LEONARDTOWN*   CLOUDY    54  32  43 W8        29.83R

$$

MDZ003>005-280100-
NORTH CENTRAL MARYLAND

CITY           SKY/WX    TMP DP  RH WIND       PRES   REMARKS
FREDERICK*     NOT AVBL
HAGERSTOWN APT CLOUDY    50  37  61 NW15      29.86R
WESTMINSTER*   MOCLDY    50  37  62 NW7       29.82S

$$

MDZ501>502-280100-
WESTERN MARYLAND

CITY           SKY/WX    TMP DP  RH WIND       PRES   REMARKS
OAKLAND*       CLOUDY    34 N/A N/A NW7G22    29.90R
CUMBERLAND*    CLOUDY    48  34  57 NW12G20   29.95R

$$

VAZ025>031-280100-
SHENANDOAH VALLEY

CITY           SKY/WX    TMP DP  RH WIND       PRES   REMARKS
WINCHESTER*    MOCLDY    50  32  50 NW14G22   29.87R
FRONT ROYAL*   CLOUDY    50  34  53 NW16G24   29.87R
LURAY*         MOCLDY    52  36  54 NW13G24   29.88R
NEW MARKET*    CLOUDY    50  34  53 N5        29.89R
STAUNTON*      CLOUDY    52  32  46 NW5       29.91R
WAYNESBORO*    MOCLDY    50  31  48 NW7       29.88R

$$

WVZ021-048>050-054>055-280100-
EASTERN WEST VIRGINIA PANHANDLE

CITY           SKY/WX    TMP DP  RH WIND       PRES   REMARKS
MARTINSBURG    PTCLDY    51  34  52 NW17G26   29.88R
PETERSBURG*    MOCLDY    47  32  55 NW9       29.93R

$$

VAZ036>039-050-280100-
CENTRAL FOOTHILLS

CITY           SKY/WX    TMP DP  RH WIND       PRES   REMARKS
CHARLOTTESVILL MOCLDY    55  30  38 NW10G17   29.86R
CULPEPER*      CLOUDY    57  34  41 NW7       29.86R
ORANGE*        CLOUDY    55  32  41 W7        29.88R
GORDONSVILLE*  MOCLDY    55  32  42 NW5       29.85R
WARRENTON*     MOCLDY    55  37  51 NW14      29.85R

$$

VAZ055>057-280100-
NORTH AND CENTRAL PIEDMONT

CITY           SKY/WX    TMP DP  RH WIND       PRES   REMARKS
FREDERICKSBRG* PTCLDY    57  33  41 NW5       29.84R
STAFFORD*      MOCLDY    53  32  44 NW6       29.89R

$$

NCZ024-NYZ072-PAZ021-071-VAZ022-071-280100-
OTHER REGIONAL OBSERVATIONS

CITY           SKY/WX    TMP DP  RH WIND       PRES   REMARKS
NEW YORK CITY  CLOUDY    58  31  35 NW14G23   29.70R
PHILADELPHIA   MOCLDY    58  29  33 W10       29.76R
PITTSBURGH     CLOUDY    44  33  65 NW13      29.98R
ROANOKE        PTCLDY    54  30  40 NW13      29.91R
RICHMOND       MOCLDY    57  32  38 NW6       29.84R
RALEIGH        PTCLDY    61  33  35 NW6       29.86R

$$

ANZ530>537-280100-
MARINE OBSERVATIONS

STATION/POSITION TIME  TEMP    WIND        PRES
                       AIR SEA DIR/SP/G
                 (UTC) (F)     (DEG/KT/KT) (MB)
THOMAS PT LIGHT  0000   56 54  310/ 16/ 20 1009.8R
BALT KEY BRIDGE  2300   57     310/ 13/ 15 1008.8R
COVE POINT       2300   56     340/ 17/ 21 1009.4R
LEWISETTA        2300   57 59              1009.0R
SOLOMONS ISLAND  2300      57                N/A
PINEY POINT      2300          330/ 22/ 24   N/A

$$




USA.gov is the U.S. government's official web portal to all federal, state and local government web resources and services.